owner,sensor,date,latitude,longitude,vertical_datum,sea_water_practical_salinity,qcFlag 
WAVCIS,ioos:station:WAVCIS:CSI16:1,2010-12-01T00:00:00Z,29.4012,-89.0355,1.0,29.515,11111222 
WAVCIS,ioos:station:WAVCIS:CSI16:1,2010-12-01T00:15:00Z,29.4012,-89.0355,1.0,29.696,11111222 
WAVCIS,ioos:station:WAVCIS:CSI16:1,2010-12-01T00:30:00Z,29.4012,-89.0355,1.0,30.116,11111222 
WAVCIS,ioos:station:WAVCIS:CSI16:1,2010-12-01T00:45:00Z,29.4012,-89.0355,1.0,30.499,11111222 
WAVCIS,ioos:station:WAVCIS:CSI16:1,2010-12-01T01:00:00Z,29.4012,-89.0355,1.0,31.076,11111222 
WAVCIS,ioos:station:WAVCIS:CSI16:1,2010-12-01T01:15:00Z,29.4012,-89.0355,1.0,31.082,11111222 
WAVCIS,ioos:station:WAVCIS:CSI16:1,2010-12-01T01:30:00Z,29.4012,-89.0355,1.0,31.09,11111222 
WAVCIS,ioos:station:WAVCIS:CSI16:1,2010-12-01T01:45:00Z,29.4012,-89.0355,1.0,31.099,11111222 
WAVCIS,ioos:station:WAVCIS:CSI16:1,2010-12-01T02:00:00Z,29.4012,-89.0355,1.0,31.111,11111222 
WAVCIS,ioos:station:WAVCIS:CSI16:1,2010-12-01T02:15:00Z,29.4012,-89.0355,1.0,31.105,11111222 
WAVCIS,ioos:station:WAVCIS:CSI16:1,2010-12-01T02:30:00Z,29.4012,-89.0355,1.0,30.957,11111222 
WAVCIS,ioos:station:WAVCIS:CSI16:1,2010-12-01T02:45:00Z,29.4012,-89.0355,1.0,30.581,11111222 
WAVCIS,ioos:station:WAVCIS:CSI16:1,2010-12-01T03:00:00Z,29.4012,-89.0355,1.0,30.644,11111222 
WAVCIS,ioos:station:WAVCIS:CSI16:1,2010-12-01T03:15:00Z,29.4012,-89.0355,1.0,30.723,11111222 
WAVCIS,ioos:station:WAVCIS:CSI16:1,2010-12-01T03:30:00Z,29.4012,-89.0355,1.0,30.79,11111222 
WAVCIS,ioos:station:WAVCIS:CSI16:1,2010-12-01T03:45:00Z,29.4012,-89.0355,1.0,30.759,11111222 
WAVCIS,ioos:station:WAVCIS:CSI16:1,2010-12-01T04:00:00Z,29.4012,-89.0355,1.0,30.641,11111222 
WAVCIS,ioos:station:WAVCIS:CSI16:1,2010-12-01T04:15:00Z,29.4012,-89.0355,1.0,30.556,11111222 
WAVCIS,ioos:station:WAVCIS:CSI16:1,2010-12-01T04:30:00Z,29.4012,-89.0355,1.0,30.513,11111222 
WAVCIS,ioos:station:WAVCIS:CSI16:1,2010-12-01T04:45:00Z,29.4012,-89.0355,1.0,30.489,11111222 
WAVCIS,ioos:station:WAVCIS:CSI16:1,2010-12-01T05:00:00Z,29.4012,-89.0355,1.0,30.453,11111222 
WAVCIS,ioos:station:WAVCIS:CSI16:1,2010-12-01T05:15:00Z,29.4012,-89.0355,1.0,30.413,11111222 
WAVCIS,ioos:station:WAVCIS:CSI16:1,2010-12-01T05:30:00Z,29.4012,-89.0355,1.0,30.349,11111222 
WAVCIS,ioos:station:WAVCIS:CSI16:1,2010-12-01T05:45:00Z,29.4012,-89.0355,1.0,30.322,11111222 
WAVCIS,ioos:station:WAVCIS:CSI16:1,2010-12-01T06:00:00Z,29.4012,-89.0355,1.0,30.245,11111222 
WAVCIS,ioos:station:WAVCIS:CSI16:1,2010-12-01T06:15:00Z,29.4012,-89.0355,1.0,30.296,11111222 
WAVCIS,ioos:station:WAVCIS:CSI16:1,2010-12-01T06:30:00Z,29.4012,-89.0355,1.0,30.278,11111222 
WAVCIS,ioos:station:WAVCIS:CSI16:1,2010-12-01T06:45:00Z,29.4012,-89.0355,1.0,28.287,11111222 
WAVCIS,ioos:station:WAVCIS:CSI16:1,2010-12-01T07:00:00Z,29.4012,-89.0355,1.0,28.427,11111222 
WAVCIS,ioos:station:WAVCIS:CSI16:1,2010-12-01T07:15:00Z,29.4012,-89.0355,1.0,28.117,11111222 
WAVCIS,ioos:station:WAVCIS:CSI16:1,2010-12-01T07:30:00Z,29.4012,-89.0355,1.0,27.824,11111222 
WAVCIS,ioos:station:WAVCIS:CSI16:1,2010-12-01T07:45:00Z,29.4012,-89.0355,1.0,27.71,11111222 
WAVCIS,ioos:station:WAVCIS:CSI16:1,2010-12-01T08:00:00Z,29.4012,-89.0355,1.0,27.687,11111222 
WAVCIS,ioos:station:WAVCIS:CSI16:1,2010-12-01T08:15:00Z,29.4012,-89.0355,1.0,27.901,11111222 
WAVCIS,ioos:station:WAVCIS:CSI16:1,2010-12-01T08:30:00Z,29.4012,-89.0355,1.0,27.922,11111222 
WAVCIS,ioos:station:WAVCIS:CSI16:1,2010-12-01T08:45:00Z,29.4012,-89.0355,1.0,28.084,11111222 
WAVCIS,ioos:station:WAVCIS:CSI16:1,2010-12-01T09:00:00Z,29.4012,-89.0355,1.0,28.196,11111222 
WAVCIS,ioos:station:WAVCIS:CSI16:1,2010-12-01T09:15:00Z,29.4012,-89.0355,1.0,28.426,11111222 
WAVCIS,ioos:station:WAVCIS:CSI16:1,2010-12-01T09:30:00Z,29.4012,-89.0355,1.0,28.524,11111222 
WAVCIS,ioos:station:WAVCIS:CSI16:1,2010-12-01T09:45:00Z,29.4012,-89.0355,1.0,28.552,11111222 
WAVCIS,ioos:station:WAVCIS:CSI16:1,2010-12-01T10:00:00Z,29.4012,-89.0355,1.0,28.44,11111222 
WAVCIS,ioos:station:WAVCIS:CSI16:1,2010-12-01T10:15:00Z,29.4012,-89.0355,1.0,28.492,11111222 
WAVCIS,ioos:station:WAVCIS:CSI16:1,2010-12-01T10:30:00Z,29.4012,-89.0355,1.0,28.692,11111222 
WAVCIS,ioos:station:WAVCIS:CSI16:1,2010-12-01T10:45:00Z,29.4012,-89.0355,1.0,28.601,11111222 
WAVCIS,ioos:station:WAVCIS:CSI16:1,2010-12-01T11:00:00Z,29.4012,-89.0355,1.0,28.765,11111222 
WAVCIS,ioos:station:WAVCIS:CSI16:1,2010-12-01T11:15:00Z,29.4012,-89.0355,1.0,28.672,11111222 
WAVCIS,ioos:station:WAVCIS:CSI16:1,2010-12-01T11:30:00Z,29.4012,-89.0355,1.0,28.688,11111222 
WAVCIS,ioos:station:WAVCIS:CSI16:1,2010-12-01T11:45:00Z,29.4012,-89.0355,1.0,28.839,11111222 
WAVCIS,ioos:station:WAVCIS:CSI16:1,2010-12-01T12:00:00Z,29.4012,-89.0355,1.0,29.238,11111222 
WAVCIS,ioos:station:WAVCIS:CSI16:1,2010-12-01T12:15:00Z,29.4012,-89.0355,1.0,29.474,11111222 
WAVCIS,ioos:station:WAVCIS:CSI16:1,2010-12-01T12:30:00Z,29.4012,-89.0355,1.0,29.861,11111222 
WAVCIS,ioos:station:WAVCIS:CSI16:1,2010-12-01T12:45:00Z,29.4012,-89.0355,1.0,29.821,11111222 
WAVCIS,ioos:station:WAVCIS:CSI16:1,2010-12-01T13:00:00Z,29.4012,-89.0355,1.0,29.818,11111222 
WAVCIS,ioos:station:WAVCIS:CSI16:1,2010-12-01T13:15:00Z,29.4012,-89.0355,1.0,29.847,11111222 
WAVCIS,ioos:station:WAVCIS:CSI16:1,2010-12-01T13:30:00Z,29.4012,-89.0355,1.0,29.943,11111222 
WAVCIS,ioos:station:WAVCIS:CSI16:1,2010-12-01T13:45:00Z,29.4012,-89.0355,1.0,30.063,11111222 
WAVCIS,ioos:station:WAVCIS:CSI16:1,2010-12-01T14:00:00Z,29.4012,-89.0355,1.0,30.145,11111222 
WAVCIS,ioos:station:WAVCIS:CSI16:1,2010-12-01T14:15:00Z,29.4012,-89.0355,1.0,30.207,11111222 
WAVCIS,ioos:station:WAVCIS:CSI16:1,2010-12-01T14:30:00Z,29.4012,-89.0355,1.0,30.279,11111222 
WAVCIS,ioos:station:WAVCIS:CSI16:1,2010-12-01T14:45:00Z,29.4012,-89.0355,1.0,30.31,11111222 
WAVCIS,ioos:station:WAVCIS:CSI16:1,2010-12-01T15:00:00Z,29.4012,-89.0355,1.0,30.375,11111222 
WAVCIS,ioos:station:WAVCIS:CSI16:1,2010-12-01T15:15:00Z,29.4012,-89.0355,1.0,30.532,11111222 
WAVCIS,ioos:station:WAVCIS:CSI16:1,2010-12-01T15:30:00Z,29.4012,-89.0355,1.0,30.507,11111222 
WAVCIS,ioos:station:WAVCIS:CSI16:1,2010-12-01T15:45:00Z,29.4012,-89.0355,1.0,30.381,11111222 
WAVCIS,ioos:station:WAVCIS:CSI16:1,2010-12-01T16:00:00Z,29.4012,-89.0355,1.0,30.26,11111222 
WAVCIS,ioos:station:WAVCIS:CSI16:1,2010-12-01T16:15:00Z,29.4012,-89.0355,1.0,30.167,11111222 
WAVCIS,ioos:station:WAVCIS:CSI16:1,2010-12-01T16:30:00Z,29.4012,-89.0355,1.0,30.032,11111222 
WAVCIS,ioos:station:WAVCIS:CSI16:1,2010-12-01T16:45:00Z,29.4012,-89.0355,1.0,29.888,11111222 
WAVCIS,ioos:station:WAVCIS:CSI16:1,2010-12-01T17:00:00Z,29.4012,-89.0355,1.0,29.881,11111222 
WAVCIS,ioos:station:WAVCIS:CSI16:1,2010-12-01T17:15:00Z,29.4012,-89.0355,1.0,29.888,11111222 
WAVCIS,ioos:station:WAVCIS:CSI16:1,2010-12-01T17:30:00Z,29.4012,-89.0355,1.0,29.919,11111222 
WAVCIS,ioos:station:WAVCIS:CSI16:1,2010-12-01T17:45:00Z,29.4012,-89.0355,1.0,30.057,11111222 
WAVCIS,ioos:station:WAVCIS:CSI16:1,2010-12-01T18:00:00Z,29.4012,-89.0355,1.0,30.131,11111222 
WAVCIS,ioos:station:WAVCIS:CSI16:1,2010-12-01T18:15:00Z,29.4012,-89.0355,1.0,30.215,11111222 
WAVCIS,ioos:station:WAVCIS:CSI16:1,2010-12-01T18:30:00Z,29.4012,-89.0355,1.0,30.363,11111222 
WAVCIS,ioos:station:WAVCIS:CSI16:1,2010-12-01T18:45:00Z,29.4012,-89.0355,1.0,30.402,11111222 
WAVCIS,ioos:station:WAVCIS:CSI16:1,2010-12-01T19:00:00Z,29.4012,-89.0355,1.0,30.337,11111222 
WAVCIS,ioos:station:WAVCIS:CSI16:1,2010-12-01T19:15:00Z,29.4012,-89.0355,1.0,30.239,11111222 
WAVCIS,ioos:station:WAVCIS:CSI16:1,2010-12-01T19:30:00Z,29.4012,-89.0355,1.0,30.199,11111222 
WAVCIS,ioos:station:WAVCIS:CSI16:1,2010-12-01T19:45:00Z,29.4012,-89.0355,1.0,30.176,11111222 
WAVCIS,ioos:station:WAVCIS:CSI16:1,2010-12-01T20:00:00Z,29.4012,-89.0355,1.0,30.166,11111222 
WAVCIS,ioos:station:WAVCIS:CSI16:1,2010-12-01T20:15:00Z,29.4012,-89.0355,1.0,30.105,11111222 
WAVCIS,ioos:station:WAVCIS:CSI16:1,2010-12-01T20:30:00Z,29.4012,-89.0355,1.0,30.078,11111222 
WAVCIS,ioos:station:WAVCIS:CSI16:1,2010-12-01T20:45:00Z,29.4012,-89.0355,1.0,30.066,11111222 
WAVCIS,ioos:station:WAVCIS:CSI16:1,2010-12-01T21:00:00Z,29.4012,-89.0355,1.0,30.066,11111222 
WAVCIS,ioos:station:WAVCIS:CSI16:1,2010-12-01T21:15:00Z,29.4012,-89.0355,1.0,30.228,11111222 
WAVCIS,ioos:station:WAVCIS:CSI16:1,2010-12-01T21:30:00Z,29.4012,-89.0355,1.0,30.3,11111222 
WAVCIS,ioos:station:WAVCIS:CSI16:1,2010-12-01T21:45:00Z,29.4012,-89.0355,1.0,30.258,11111222 
WAVCIS,ioos:station:WAVCIS:CSI16:1,2010-12-01T22:00:00Z,29.4012,-89.0355,1.0,30.412,11111222 
WAVCIS,ioos:station:WAVCIS:CSI16:1,2010-12-01T22:15:00Z,29.4012,-89.0355,1.0,30.096,11111222 
WAVCIS,ioos:station:WAVCIS:CSI16:1,2010-12-01T22:30:00Z,29.4012,-89.0355,1.0,30.074,11111222 
WAVCIS,ioos:station:WAVCIS:CSI16:1,2010-12-01T22:45:00Z,29.4012,-89.0355,1.0,30.004,11111222 
WAVCIS,ioos:station:WAVCIS:CSI16:1,2010-12-01T23:00:00Z,29.4012,-89.0355,1.0,30.016,11111222 
WAVCIS,ioos:station:WAVCIS:CSI16:1,2010-12-01T23:15:00Z,29.4012,-89.0355,1.0,30.657,11111222 
WAVCIS,ioos:station:WAVCIS:CSI16:1,2010-12-01T23:30:00Z,29.4012,-89.0355,1.0,31.065,11111222 
WAVCIS,ioos:station:WAVCIS:CSI16:1,2010-12-01T23:45:00Z,29.4012,-89.0355,1.0,29.985,11111222 
WAVCIS,ioos:station:WAVCIS:CSI16:1,2010-12-02T00:00:00Z,29.4012,-89.0355,1.0,29.982,11111222 
WAVCIS,ioos:station:WAVCIS:CSI16:1,2010-12-02T00:15:00Z,29.4012,-89.0355,1.0,29.933,11111222 
WAVCIS,ioos:station:WAVCIS:CSI16:1,2010-12-02T00:30:00Z,29.4012,-89.0355,1.0,30.016,11111222 
WAVCIS,ioos:station:WAVCIS:CSI16:1,2010-12-02T00:45:00Z,29.4012,-89.0355,1.0,29.369,11111222 
WAVCIS,ioos:station:WAVCIS:CSI16:1,2010-12-02T01:00:00Z,29.4012,-89.0355,1.0,29.465,11111222 
WAVCIS,ioos:station:WAVCIS:CSI16:1,2010-12-02T01:15:00Z,29.4012,-89.0355,1.0,29.272,11111222 
WAVCIS,ioos:station:WAVCIS:CSI16:1,2010-12-02T01:30:00Z,29.4012,-89.0355,1.0,29.304,11111222 
WAVCIS,ioos:station:WAVCIS:CSI16:1,2010-12-02T01:45:00Z,29.4012,-89.0355,1.0,29.079,11111222 
WAVCIS,ioos:station:WAVCIS:CSI16:1,2010-12-02T02:00:00Z,29.4012,-89.0355,1.0,28.689,11111222 
WAVCIS,ioos:station:WAVCIS:CSI16:1,2010-12-02T02:15:00Z,29.4012,-89.0355,1.0,28.56,11111222 
WAVCIS,ioos:station:WAVCIS:CSI16:1,2010-12-02T02:30:00Z,29.4012,-89.0355,1.0,28.396,11111222 
WAVCIS,ioos:station:WAVCIS:CSI16:1,2010-12-02T02:45:00Z,29.4012,-89.0355,1.0,28.041,11111222 
WAVCIS,ioos:station:WAVCIS:CSI16:1,2010-12-02T03:00:00Z,29.4012,-89.0355,1.0,27.967,11111222 
WAVCIS,ioos:station:WAVCIS:CSI16:1,2010-12-02T03:15:00Z,29.4012,-89.0355,1.0,27.601,11111222 
WAVCIS,ioos:station:WAVCIS:CSI16:1,2010-12-02T03:30:00Z,29.4012,-89.0355,1.0,27.625,11111222 
WAVCIS,ioos:station:WAVCIS:CSI16:1,2010-12-02T03:45:00Z,29.4012,-89.0355,1.0,27.379,11111222 
WAVCIS,ioos:station:WAVCIS:CSI16:1,2010-12-02T04:00:00Z,29.4012,-89.0355,1.0,26.974,11111222 
WAVCIS,ioos:station:WAVCIS:CSI16:1,2010-12-02T04:15:00Z,29.4012,-89.0355,1.0,26.706,11111222 
WAVCIS,ioos:station:WAVCIS:CSI16:1,2010-12-02T04:30:00Z,29.4012,-89.0355,1.0,26.714,11111222 
WAVCIS,ioos:station:WAVCIS:CSI16:1,2010-12-02T04:45:00Z,29.4012,-89.0355,1.0,26.4,11111222 
WAVCIS,ioos:station:WAVCIS:CSI16:1,2010-12-02T05:00:00Z,29.4012,-89.0355,1.0,25.906,11111222 
WAVCIS,ioos:station:WAVCIS:CSI16:1,2010-12-02T05:15:00Z,29.4012,-89.0355,1.0,25.751,11111222 
WAVCIS,ioos:station:WAVCIS:CSI16:1,2010-12-02T05:30:00Z,29.4012,-89.0355,1.0,25.653,11111222 
WAVCIS,ioos:station:WAVCIS:CSI16:1,2010-12-02T05:45:00Z,29.4012,-89.0355,1.0,25.601,11111222 
WAVCIS,ioos:station:WAVCIS:CSI16:1,2010-12-02T06:00:00Z,29.4012,-89.0355,1.0,24.919,11111222 
WAVCIS,ioos:station:WAVCIS:CSI16:1,2010-12-02T06:15:00Z,29.4012,-89.0355,1.0,24.917,11111222 
WAVCIS,ioos:station:WAVCIS:CSI16:1,2010-12-02T06:30:00Z,29.4012,-89.0355,1.0,24.691,11111222 
WAVCIS,ioos:station:WAVCIS:CSI16:1,2010-12-02T06:45:00Z,29.4012,-89.0355,1.0,24.406,11111222 
WAVCIS,ioos:station:WAVCIS:CSI16:1,2010-12-02T07:00:00Z,29.4012,-89.0355,1.0,24.799,11111222 
WAVCIS,ioos:station:WAVCIS:CSI16:1,2010-12-02T07:15:00Z,29.4012,-89.0355,1.0,24.833,11111222 
WAVCIS,ioos:station:WAVCIS:CSI16:1,2010-12-02T07:30:00Z,29.4012,-89.0355,1.0,24.807,11111222 
WAVCIS,ioos:station:WAVCIS:CSI16:1,2010-12-02T07:45:00Z,29.4012,-89.0355,1.0,25.459,11111222 
WAVCIS,ioos:station:WAVCIS:CSI16:1,2010-12-02T08:00:00Z,29.4012,-89.0355,1.0,25.441,11111222 
WAVCIS,ioos:station:WAVCIS:CSI16:1,2010-12-02T08:15:00Z,29.4012,-89.0355,1.0,26.031,11111222 
WAVCIS,ioos:station:WAVCIS:CSI16:1,2010-12-02T08:30:00Z,29.4012,-89.0355,1.0,26.602,11111222 
WAVCIS,ioos:station:WAVCIS:CSI16:1,2010-12-02T08:45:00Z,29.4012,-89.0355,1.0,26.966,11111222 
WAVCIS,ioos:station:WAVCIS:CSI16:1,2010-12-02T09:00:00Z,29.4012,-89.0355,1.0,27.18,11111222 
WAVCIS,ioos:station:WAVCIS:CSI16:1,2010-12-02T09:15:00Z,29.4012,-89.0355,1.0,27.526,11111222 
WAVCIS,ioos:station:WAVCIS:CSI16:1,2010-12-02T09:30:00Z,29.4012,-89.0355,1.0,27.706,11111222 
WAVCIS,ioos:station:WAVCIS:CSI16:1,2010-12-02T09:45:00Z,29.4012,-89.0355,1.0,28.415,11111222 
WAVCIS,ioos:station:WAVCIS:CSI16:1,2010-12-02T10:00:00Z,29.4012,-89.0355,1.0,28.227,11111222 
WAVCIS,ioos:station:WAVCIS:CSI16:1,2010-12-02T10:15:00Z,29.4012,-89.0355,1.0,28.454,11111222 
WAVCIS,ioos:station:WAVCIS:CSI16:1,2010-12-02T10:30:00Z,29.4012,-89.0355,1.0,28.596,11111222 
WAVCIS,ioos:station:WAVCIS:CSI16:1,2010-12-02T10:45:00Z,29.4012,-89.0355,1.0,28.594,11111222 
WAVCIS,ioos:station:WAVCIS:CSI16:1,2010-12-02T11:00:00Z,29.4012,-89.0355,1.0,28.712,11111222 
WAVCIS,ioos:station:WAVCIS:CSI16:1,2010-12-02T11:15:00Z,29.4012,-89.0355,1.0,28.636,11111222 
WAVCIS,ioos:station:WAVCIS:CSI16:1,2010-12-02T11:30:00Z,29.4012,-89.0355,1.0,28.754,11111222 
WAVCIS,ioos:station:WAVCIS:CSI16:1,2010-12-02T11:45:00Z,29.4012,-89.0355,1.0,28.872,11111222 
WAVCIS,ioos:station:WAVCIS:CSI16:1,2010-12-02T12:00:00Z,29.4012,-89.0355,1.0,28.76,11111222 
WAVCIS,ioos:station:WAVCIS:CSI16:1,2010-12-02T12:15:00Z,29.4012,-89.0355,1.0,28.845,11111222 
WAVCIS,ioos:station:WAVCIS:CSI16:1,2010-12-02T12:30:00Z,29.4012,-89.0355,1.0,29.163,11111222 
WAVCIS,ioos:station:WAVCIS:CSI16:1,2010-12-02T12:45:00Z,29.4012,-89.0355,1.0,29.565,11111222 
WAVCIS,ioos:station:WAVCIS:CSI16:1,2010-12-02T13:00:00Z,29.4012,-89.0355,1.0,29.829,11111222 
WAVCIS,ioos:station:WAVCIS:CSI16:1,2010-12-02T13:15:00Z,29.4012,-89.0355,1.0,29.845,11111222 
WAVCIS,ioos:station:WAVCIS:CSI16:1,2010-12-02T13:30:00Z,29.4012,-89.0355,1.0,29.632,11111222 
WAVCIS,ioos:station:WAVCIS:CSI16:1,2010-12-02T13:45:00Z,29.4012,-89.0355,1.0,29.651,11111222 
WAVCIS,ioos:station:WAVCIS:CSI16:1,2010-12-02T14:00:00Z,29.4012,-89.0355,1.0,29.895,11111222 
WAVCIS,ioos:station:WAVCIS:CSI16:1,2010-12-02T14:15:00Z,29.4012,-89.0355,1.0,29.692,11111222 
WAVCIS,ioos:station:WAVCIS:CSI16:1,2010-12-02T14:30:00Z,29.4012,-89.0355,1.0,29.937,11111222 
WAVCIS,ioos:station:WAVCIS:CSI16:1,2010-12-02T14:45:00Z,29.4012,-89.0355,1.0,30.105,11111222 
WAVCIS,ioos:station:WAVCIS:CSI16:1,2010-12-02T15:00:00Z,29.4012,-89.0355,1.0,29.755,11111222 
WAVCIS,ioos:station:WAVCIS:CSI16:1,2010-12-02T15:15:00Z,29.4012,-89.0355,1.0,29.656,11111222 
WAVCIS,ioos:station:WAVCIS:CSI16:1,2010-12-02T15:30:00Z,29.4012,-89.0355,1.0,29.45,11111222 
WAVCIS,ioos:station:WAVCIS:CSI16:1,2010-12-02T15:45:00Z,29.4012,-89.0355,1.0,29.485,11111222 
WAVCIS,ioos:station:WAVCIS:CSI16:1,2010-12-02T16:00:00Z,29.4012,-89.0355,1.0,29.332,11111222 
WAVCIS,ioos:station:WAVCIS:CSI16:1,2010-12-02T16:15:00Z,29.4012,-89.0355,1.0,29.306,11111222 
WAVCIS,ioos:station:WAVCIS:CSI16:1,2010-12-02T16:30:00Z,29.4012,-89.0355,1.0,29.116,11111222 
WAVCIS,ioos:station:WAVCIS:CSI16:1,2010-12-02T16:45:00Z,29.4012,-89.0355,1.0,29.011,11111222 
WAVCIS,ioos:station:WAVCIS:CSI16:1,2010-12-02T17:00:00Z,29.4012,-89.0355,1.0,28.922,11111222 
WAVCIS,ioos:station:WAVCIS:CSI16:1,2010-12-02T17:15:00Z,29.4012,-89.0355,1.0,28.805,11111222 
WAVCIS,ioos:station:WAVCIS:CSI16:1,2010-12-02T17:30:00Z,29.4012,-89.0355,1.0,28.778,11111222 
WAVCIS,ioos:station:WAVCIS:CSI16:1,2010-12-02T17:45:00Z,29.4012,-89.0355,1.0,28.689,11111222 
WAVCIS,ioos:station:WAVCIS:CSI16:1,2010-12-02T18:00:00Z,29.4012,-89.0355,1.0,28.663,11111222 
WAVCIS,ioos:station:WAVCIS:CSI16:1,2010-12-02T18:15:00Z,29.4012,-89.0355,1.0,28.693,11111222 
WAVCIS,ioos:station:WAVCIS:CSI16:1,2010-12-02T18:30:00Z,29.4012,-89.0355,1.0,28.814,11111222 
WAVCIS,ioos:station:WAVCIS:CSI16:1,2010-12-02T18:45:00Z,29.4012,-89.0355,1.0,28.529,11111222 
WAVCIS,ioos:station:WAVCIS:CSI16:1,2010-12-02T19:00:00Z,29.4012,-89.0355,1.0,29.587,11111222 
WAVCIS,ioos:station:WAVCIS:CSI16:1,2010-12-02T19:15:00Z,29.4012,-89.0355,1.0,28.381,11111222 
WAVCIS,ioos:station:WAVCIS:CSI16:1,2010-12-02T19:30:00Z,29.4012,-89.0355,1.0,28.273,11111222 
WAVCIS,ioos:station:WAVCIS:CSI16:1,2010-12-02T19:45:00Z,29.4012,-89.0355,1.0,28.106,11111222 
WAVCIS,ioos:station:WAVCIS:CSI16:1,2010-12-02T20:00:00Z,29.4012,-89.0355,1.0,28.282,11111222 
WAVCIS,ioos:station:WAVCIS:CSI16:1,2010-12-02T20:15:00Z,29.4012,-89.0355,1.0,28.068,11111222 
WAVCIS,ioos:station:WAVCIS:CSI16:1,2010-12-02T20:30:00Z,29.4012,-89.0355,1.0,27.979,11111222 
WAVCIS,ioos:station:WAVCIS:CSI16:1,2010-12-02T20:45:00Z,29.4012,-89.0355,1.0,28.432,11111222 
WAVCIS,ioos:station:WAVCIS:CSI16:1,2010-12-02T21:00:00Z,29.4012,-89.0355,1.0,28.937,11111222 
WAVCIS,ioos:station:WAVCIS:CSI16:1,2010-12-02T21:15:00Z,29.4012,-89.0355,1.0,28.842,11111222 
WAVCIS,ioos:station:WAVCIS:CSI16:1,2010-12-02T21:30:00Z,29.4012,-89.0355,1.0,29.445,11111222 
WAVCIS,ioos:station:WAVCIS:CSI16:1,2010-12-02T21:45:00Z,29.4012,-89.0355,1.0,29.66,11111222 
WAVCIS,ioos:station:WAVCIS:CSI16:1,2010-12-02T22:00:00Z,29.4012,-89.0355,1.0,29.615,11111222 
WAVCIS,ioos:station:WAVCIS:CSI16:1,2010-12-02T22:15:00Z,29.4012,-89.0355,1.0,30.153,11111222 
WAVCIS,ioos:station:WAVCIS:CSI16:1,2010-12-02T22:30:00Z,29.4012,-89.0355,1.0,30.278,11111222 
WAVCIS,ioos:station:WAVCIS:CSI16:1,2010-12-02T22:45:00Z,29.4012,-89.0355,1.0,30.183,11111222 
WAVCIS,ioos:station:WAVCIS:CSI16:1,2010-12-02T23:00:00Z,29.4012,-89.0355,1.0,30.25,11111222 
WAVCIS,ioos:station:WAVCIS:CSI16:1,2010-12-02T23:15:00Z,29.4012,-89.0355,1.0,30.352,11111222 
WAVCIS,ioos:station:WAVCIS:CSI16:1,2010-12-02T23:30:00Z,29.4012,-89.0355,1.0,30.913,11111222 
WAVCIS,ioos:station:WAVCIS:CSI16:1,2010-12-02T23:45:00Z,29.4012,-89.0355,1.0,29.773,11111222 
WAVCIS,ioos:station:WAVCIS:CSI16:1,2010-12-03T00:00:00Z,29.4012,-89.0355,1.0,30.496,11111222 
WAVCIS,ioos:station:WAVCIS:CSI16:1,2010-12-03T00:15:00Z,29.4012,-89.0355,1.0,30.761,11111222 
WAVCIS,ioos:station:WAVCIS:CSI16:1,2010-12-03T00:30:00Z,29.4012,-89.0355,1.0,30.468,11111222 
WAVCIS,ioos:station:WAVCIS:CSI16:1,2010-12-03T00:45:00Z,29.4012,-89.0355,1.0,30.901,11111222 
WAVCIS,ioos:station:WAVCIS:CSI16:1,2010-12-03T01:00:00Z,29.4012,-89.0355,1.0,30.972,11111222 
WAVCIS,ioos:station:WAVCIS:CSI16:1,2010-12-03T01:15:00Z,29.4012,-89.0355,1.0,31.027,11111222 
WAVCIS,ioos:station:WAVCIS:CSI16:1,2010-12-03T01:30:00Z,29.4012,-89.0355,1.0,31.136,11111222 
WAVCIS,ioos:station:WAVCIS:CSI16:1,2010-12-03T01:45:00Z,29.4012,-89.0355,1.0,31.296,11111222 
WAVCIS,ioos:station:WAVCIS:CSI16:1,2010-12-03T02:00:00Z,29.4012,-89.0355,1.0,31.352,11111222 
WAVCIS,ioos:station:WAVCIS:CSI16:1,2010-12-03T02:15:00Z,29.4012,-89.0355,1.0,31.455,11111222 
WAVCIS,ioos:station:WAVCIS:CSI16:1,2010-12-03T02:30:00Z,29.4012,-89.0355,1.0,31.46,11111222 
WAVCIS,ioos:station:WAVCIS:CSI16:1,2010-12-03T02:45:00Z,29.4012,-89.0355,1.0,31.507,11111222 
WAVCIS,ioos:station:WAVCIS:CSI16:1,2010-12-03T03:00:00Z,29.4012,-89.0355,1.0,31.512,11111222 
WAVCIS,ioos:station:WAVCIS:CSI16:1,2010-12-03T03:15:00Z,29.4012,-89.0355,1.0,31.492,11111222 
WAVCIS,ioos:station:WAVCIS:CSI16:1,2010-12-03T03:30:00Z,29.4012,-89.0355,1.0,31.437,11111222 
WAVCIS,ioos:station:WAVCIS:CSI16:1,2010-12-03T03:45:00Z,29.4012,-89.0355,1.0,31.466,11111222 
WAVCIS,ioos:station:WAVCIS:CSI16:1,2010-12-03T04:00:00Z,29.4012,-89.0355,1.0,31.431,11111222 
WAVCIS,ioos:station:WAVCIS:CSI16:1,2010-12-03T04:15:00Z,29.4012,-89.0355,1.0,31.347,11111222 
WAVCIS,ioos:station:WAVCIS:CSI16:1,2010-12-03T04:30:00Z,29.4012,-89.0355,1.0,30.356,11111222 
WAVCIS,ioos:station:WAVCIS:CSI16:1,2010-12-03T04:45:00Z,29.4012,-89.0355,1.0,30.465,11111222 
WAVCIS,ioos:station:WAVCIS:CSI16:1,2010-12-03T05:00:00Z,29.4012,-89.0355,1.0,29.651,11111222 
WAVCIS,ioos:station:WAVCIS:CSI16:1,2010-12-03T05:15:00Z,29.4012,-89.0355,1.0,26.226,11111222 
WAVCIS,ioos:station:WAVCIS:CSI16:1,2010-12-03T05:30:00Z,29.4012,-89.0355,1.0,25.266,11111222 
WAVCIS,ioos:station:WAVCIS:CSI16:1,2010-12-03T05:45:00Z,29.4012,-89.0355,1.0,23.07,11111222 
WAVCIS,ioos:station:WAVCIS:CSI16:1,2010-12-03T06:00:00Z,29.4012,-89.0355,1.0,22.983,11111222 
WAVCIS,ioos:station:WAVCIS:CSI16:1,2010-12-03T06:15:00Z,29.4012,-89.0355,1.0,22.108,11111222 
WAVCIS,ioos:station:WAVCIS:CSI16:1,2010-12-03T06:30:00Z,29.4012,-89.0355,1.0,21.581,11111222 
WAVCIS,ioos:station:WAVCIS:CSI16:1,2010-12-03T06:45:00Z,29.4012,-89.0355,1.0,21.045,11111222 
WAVCIS,ioos:station:WAVCIS:CSI16:1,2010-12-03T07:00:00Z,29.4012,-89.0355,1.0,20.534,11111222 
WAVCIS,ioos:station:WAVCIS:CSI16:1,2010-12-03T07:15:00Z,29.4012,-89.0355,1.0,20.617,11111222 
WAVCIS,ioos:station:WAVCIS:CSI16:1,2010-12-03T07:30:00Z,29.4012,-89.0355,1.0,20.464,11111222 
WAVCIS,ioos:station:WAVCIS:CSI16:1,2010-12-03T07:45:00Z,29.4012,-89.0355,1.0,20.037,11111222 
WAVCIS,ioos:station:WAVCIS:CSI16:1,2010-12-03T08:00:00Z,29.4012,-89.0355,1.0,19.969,11111222 
WAVCIS,ioos:station:WAVCIS:CSI16:1,2010-12-03T08:15:00Z,29.4012,-89.0355,1.0,19.967,11111222 
WAVCIS,ioos:station:WAVCIS:CSI16:1,2010-12-03T08:30:00Z,29.4012,-89.0355,1.0,19.374,11111222 
WAVCIS,ioos:station:WAVCIS:CSI16:1,2010-12-03T08:45:00Z,29.4012,-89.0355,1.0,19.097,11111222 
WAVCIS,ioos:station:WAVCIS:CSI16:1,2010-12-03T09:00:00Z,29.4012,-89.0355,1.0,19.238,11111222 
WAVCIS,ioos:station:WAVCIS:CSI16:1,2010-12-03T09:15:00Z,29.4012,-89.0355,1.0,19.4,11111222 
WAVCIS,ioos:station:WAVCIS:CSI16:1,2010-12-03T09:30:00Z,29.4012,-89.0355,1.0,19.191,11111222 
WAVCIS,ioos:station:WAVCIS:CSI16:1,2010-12-03T09:45:00Z,29.4012,-89.0355,1.0,17.996,11111222 
WAVCIS,ioos:station:WAVCIS:CSI16:1,2010-12-03T10:00:00Z,29.4012,-89.0355,1.0,18.094,11111222 
WAVCIS,ioos:station:WAVCIS:CSI16:1,2010-12-03T10:15:00Z,29.4012,-89.0355,1.0,18.882,11111222 
WAVCIS,ioos:station:WAVCIS:CSI16:1,2010-12-03T10:30:00Z,29.4012,-89.0355,1.0,18.011,11111222 
WAVCIS,ioos:station:WAVCIS:CSI16:1,2010-12-03T10:45:00Z,29.4012,-89.0355,1.0,17.68,11111222 
WAVCIS,ioos:station:WAVCIS:CSI16:1,2010-12-03T11:00:00Z,29.4012,-89.0355,1.0,17.556,11111222 
WAVCIS,ioos:station:WAVCIS:CSI16:1,2010-12-03T11:15:00Z,29.4012,-89.0355,1.0,18.368,11111222 
WAVCIS,ioos:station:WAVCIS:CSI16:1,2010-12-03T11:30:00Z,29.4012,-89.0355,1.0,22.777,11111222 
WAVCIS,ioos:station:WAVCIS:CSI16:1,2010-12-03T11:45:00Z,29.4012,-89.0355,1.0,24.023,11111222 
WAVCIS,ioos:station:WAVCIS:CSI16:1,2010-12-03T12:00:00Z,29.4012,-89.0355,1.0,25.108,11111222 
WAVCIS,ioos:station:WAVCIS:CSI16:1,2010-12-03T12:15:00Z,29.4012,-89.0355,1.0,25.83,11111222 
WAVCIS,ioos:station:WAVCIS:CSI16:1,2010-12-03T12:30:00Z,29.4012,-89.0355,1.0,25.435,11111222 
WAVCIS,ioos:station:WAVCIS:CSI16:1,2010-12-03T12:45:00Z,29.4012,-89.0355,1.0,25.878,11111222 
WAVCIS,ioos:station:WAVCIS:CSI16:1,2010-12-03T13:00:00Z,29.4012,-89.0355,1.0,25.836,11111222 
WAVCIS,ioos:station:WAVCIS:CSI16:1,2010-12-03T13:15:00Z,29.4012,-89.0355,1.0,25.932,11111222 
WAVCIS,ioos:station:WAVCIS:CSI16:1,2010-12-03T13:30:00Z,29.4012,-89.0355,1.0,25.924,11111222 
WAVCIS,ioos:station:WAVCIS:CSI16:1,2010-12-03T13:45:00Z,29.4012,-89.0355,1.0,25.876,11111222 
WAVCIS,ioos:station:WAVCIS:CSI16:1,2010-12-03T14:00:00Z,29.4012,-89.0355,1.0,26.373,11111222 
WAVCIS,ioos:station:WAVCIS:CSI16:1,2010-12-03T14:15:00Z,29.4012,-89.0355,1.0,26.195,11111222 
WAVCIS,ioos:station:WAVCIS:CSI16:1,2010-12-03T14:30:00Z,29.4012,-89.0355,1.0,25.761,11111222 
WAVCIS,ioos:station:WAVCIS:CSI16:1,2010-12-03T14:45:00Z,29.4012,-89.0355,1.0,26.121,11111222 
WAVCIS,ioos:station:WAVCIS:CSI16:1,2010-12-03T15:00:00Z,29.4012,-89.0355,1.0,26.786,11111222 
WAVCIS,ioos:station:WAVCIS:CSI16:1,2010-12-03T15:15:00Z,29.4012,-89.0355,1.0,27.545,11111222 